Location: Lansingburgh
(42.7845°N, 73.6696°W)
Time: 08:42:33
(UTC+00:00)

BlueWalker 3 - Pass Details

Date: 20 December 2025
Orbit: 451 x 463 km, 53.2° (Epoch: 18 January)

Event Time Altitude Azimuth Distance (km) Brightness Sun altitude
Rises 10:48:48 0° 201° (SSW) 2,445 5.4 -16.3°
Reaches altitude 10° 10:51:11 10° 186° (S) 1,580 4.6 -15.9°
Maximum altitude 10:54:05 23° 132° (SE) 997 4.2 -15.4°
Drops below altitude 10° 10:57:00 10° 77° (ENE) 1,595 5.4 -14.9°
Sets 10:59:25 0° 63° (ENE) 2,475 6.2 -14.4°
